| time (UTC) | temp C | wind direction | speed KPH | gust KPH | rain 1hr cm | rain 24hr cm | rain mn cm | humidity % | barometer mb |
| 20260509043431 | 10 | 146 | 0.0 | 1.6 | 0.00 | 0.03 | 0.00 | 90 | 1008.2 |
| 20260509041932 | 11 | 146 | 0.0 | 1.6 | 0.00 | 0.03 | 0.00 | 90 | 1008.2 |
| 20260509040430 | 11 | 146 | 0.0 | 3.2 | 0.00 | 0.03 | 0.00 | 90 | 1008.2 |
| 20260509034931 | 11 | 178 | 3.2 | 1.6 | 0.00 | 0.03 | 0.03 | 90 | 1008.4 |
| 20260509033431 | 11 | 163 | 3.2 | 6.4 | 0.00 | 0.03 | 0.03 | 90 | 1008.6 |
| 20260509031930 | 11 | 185 | 3.2 | 0.0 | 0.00 | 0.03 | 0.03 | 90 | 1008.6 |
| 20260509030452 | 11 | 238 | 3.2 | 1.6 | 0.00 | 0.03 | 0.03 | 90 | 1008.6 |
| 20260509024931 | 11 | 246 | 3.2 | 3.2 | 0.00 | 0.03 | 0.03 | 90 | 1008.8 |
| 20260509023431 | 11 | 178 | 3.2 | 8.0 | 0.00 | 0.03 | 0.03 | 90 | 1008.8 |
| 20260509021953 | 11 | 156 | 3.2 | 6.4 | 0.00 | 0.03 | 0.03 | 90 | 1008.8 |
| 20260509020452 | 11 | 140 | 3.2 | 0.0 | 0.00 | 0.03 | 0.03 | 89 | 1008.8 |
| 20260509014952 | 12 | 140 | 3.2 | 0.0 | 0.00 | 0.03 | 0.03 | 89 | 1008.8 |
| 20260509013431 | 12 | 140 | 3.2 | 0.0 | 0.00 | 0.03 | 0.03 | 87 | 1008.7 |
| 20260509011931 | 12 | 140 | 3.2 | 1.6 | 0.00 | 0.03 | 0.03 | 86 | 1008.6 |
| 20260509010513 | 13 | 140 | 3.2 | 0.0 | 0.00 | 0.03 | 0.03 | 84 | 1008.4 |
| 20260509004931 | 13 | 140 | 3.2 | 1.6 | 0.00 | 0.03 | 0.03 | 82 | 1008.4 |
| 20260509003432 | 15 | 140 | 3.2 | 1.6 | 0.00 | 0.13 | 0.03 | 80 | 1008.3 |
| 20260509001952 | 15 | 140 | 3.2 | 3.2 | 0.00 | 0.20 | 0.03 | 77 | 1008.1 |
| 20260509000432 | 16 | 181 | 3.2 | 6.4 | 0.00 | 0.28 | 0.03 | 74 | 1008.1 |
| 20260508234932 | 16 | 149 | 3.2 | 6.4 | 0.00 | 0.28 | 0.03 | 71 | 1008.3 |
| 20260508233431 | 16 | 219 | 3.2 | 8.0 | 0.00 | 0.28 | 0.03 | 71 | 1008.3 |
| 20260508231931 | 16 | 221 | 3.2 | 9.7 | 0.00 | 0.28 | 0.03 | 73 | 1008.4 |
| 20260508230432 | 17 | 238 | 3.2 | 9.7 | 0.00 | 0.28 | 0.03 | 70 | 1008.3 |
| 20260508224931 | 16 | 205 | 3.2 | 9.7 | 0.00 | 0.28 | 0.03 | 69 | 1008.6 |
| 20260508223453 | 16 | 164 | 3.2 | 9.7 | 0.00 | 0.28 | 0.03 | 69 | 1008.5 |
| 20260508221953 | 16 | 195 | 3.2 | 6.4 | 0.00 | 0.28 | 0.03 | 71 | 1008.6 |
| 20260508220431 | 16 | 171 | 3.2 | 8.0 | 0.00 | 0.28 | 0.03 | 71 | 1008.6 |
| 20260508214952 | 16 | 271 | 3.2 | 11.3 | 0.00 | 0.28 | 0.03 | 70 | 1008.4 |
| 20260508213431 | 17 | 150 | 3.2 | 11.3 | 0.00 | 0.28 | 0.03 | 70 | 1008.7 |
| 20260508211952 | 16 | 264 | 3.2 | 9.7 | 0.00 | 0.28 | 0.03 | 70 | 1008.8 |
| 20260508210432 | 16 | 261 | 3.2 | 12.9 | 0.00 | 0.28 | 0.03 | 71 | 1008.8 |
| 20260508204953 | 16 | 166 | 3.2 | 12.9 | 0.00 | 0.28 | 0.03 | 70 | 1009.1 |
| 20260508203432 | 16 | 149 | 3.2 | 17.7 | 0.00 | 0.28 | 0.03 | 69 | 1009.2 |
| 20260508201932 | 16 | 163 | 3.2 | 16.1 | 0.00 | 0.28 | 0.03 | 69 | 1009.3 |
| 20260508200452 | 16 | 272 | 3.2 | 17.7 | 0.00 | 0.28 | 0.03 | 70 | 1009.5 |
| 20260508195014 | 17 | 284 | 3.2 | 12.9 | 0.00 | 0.28 | 0.03 | 69 | 1009.7 |
| 20260508193431 | 16 | 187 | 3.2 | 12.9 | 0.00 | 0.28 | 0.03 | 68 | 1009.9 |
| 20260508191931 | 16 | 161 | 3.2 | 12.9 | 0.00 | 0.28 | 0.03 | 68 | 1010.1 |
| 20260508190431 | 16 | 160 | 3.2 | 19.3 | 0.00 | 0.28 | 0.03 | 73 | 1010.3 |
| 20260508184931 | 16 | 239 | 1.6 | 16.1 | 0.00 | 0.28 | 0.03 | 72 | 1010.6 |
| 20260508183453 | 16 | 159 | 1.6 | 14.5 | 0.00 | 0.28 | 0.03 | 70 | 1010.7 |
| 20260508181931 | 16 | 182 | 1.6 | 12.9 | 0.00 | 0.28 | 0.03 | 71 | 1010.7 |
| 20260508180453 | 16 | 173 | 1.6 | 14.5 | 0.00 | 0.28 | 0.03 | 69 | 1011.0 |
| 20260508175015 | 16 | 164 | 1.6 | 12.9 | 0.00 | 0.28 | 0.03 | 69 | 1011.1 |
| 20260508173432 | 16 | 215 | 1.6 | 9.7 | 0.00 | 0.28 | 0.03 | 70 | 1011.3 |
| 20260508171932 | 16 | 202 | 1.6 | 12.9 | 0.00 | 0.28 | 0.03 | 66 | 1011.7 |
| 20260508170432 | 16 | 169 | 1.6 | 14.5 | 0.00 | 0.28 | 0.03 | 64 | 1011.9 |
| 20260508164932 | 15 | 161 | 1.6 | 12.9 | 0.00 | 0.28 | 0.03 | 62 | 1012.1 |
| 20260508163453 | 16 | 171 | 1.6 | 8.0 | 0.00 | 0.28 | 0.03 | 55 | 1012.2 |
| 20260508161953 | 16 | 155 | 1.6 | 12.9 | 0.00 | 0.28 | 0.03 | 67 | 1012.5 |
| 20260508160433 | 15 | 188 | 1.6 | 11.3 | 0.00 | 0.28 | 0.03 | 71 | 1012.6 |
| 20260508154953 | 15 | 165 | 1.6 | 12.9 | 0.00 | 0.28 | 0.03 | 77 | 1012.6 |
| 20260508153432 | 14 | 141 | 1.6 | 11.3 | 0.00 | 0.28 | 0.03 | 80 | 1012.7 |
| 20260508151932 | 13 | 211 | 0.0 | 11.3 | 0.00 | 0.28 | 0.03 | 80 | 1012.8 |
| 20260508150432 | 13 | 194 | 0.0 | 9.7 | 0.00 | 0.28 | 0.03 | 80 | 1012.6 |
| 20260508144933 | 13 | 155 | 0.0 | 9.7 | 0.00 | 0.28 | 0.03 | 81 | 1012.6 |
| 20260508143514 | 12 | 184 | 0.0 | 11.3 | 0.00 | 0.28 | 0.03 | 82 | 1012.8 |
| 20260508141932 | 11 | 286 | 0.0 | 8.0 | 0.00 | 0.28 | 0.03 | 85 | 1012.9 |
| 20260508140433 | 11 | 159 | 0.0 | 11.3 | 0.00 | 0.28 | 0.03 | 88 | 1013.1 |
| 20260508134933 | 10 | 174 | 0.0 | 11.3 | 0.00 | 0.28 | 0.03 | 92 | 1013.3 |
| 20260508133433 | 10 | 196 | 0.0 | 6.4 | 0.00 | 0.28 | 0.03 | 94 | 1013.4 |
| 20260508131932 | 9 | 207 | 0.0 | 4.8 | 0.00 | 0.28 | 0.03 | 94 | 1013.3 |
| 20260508130433 | 9 | 155 | 0.0 | 1.6 | 0.00 | 0.28 | 0.03 | 95 | 1013.3 |
| 20260508125014 | 8 | 155 | 0.0 | 1.6 | 0.00 | 0.28 | 0.03 | 95 | 1013.3 |
| 20260508123454 | 8 | 309 | 0.0 | 1.6 | 0.00 | 0.28 | 0.03 | 95 | 1013.2 |
| 20260508121953 | 8 | 207 | 0.0 | 1.6 | 0.00 | 0.28 | 0.03 | 95 | 1013.2 |
| 20260508120432 | 7 | 207 | 0.0 | 0.0 | 0.00 | 0.28 | 0.03 | 96 | 1013.2 |
| 20260508114932 | 6 | 207 | 0.0 | 0.0 | 0.00 | 0.28 | 0.03 | 95 | 1013.0 |
| 20260508113433 | 6 | 207 | 0.0 | 0.0 | 0.00 | 0.28 | 0.03 | 95 | 1012.8 |
| 20260508111933 | 5 | 207 | 0.0 | 1.6 | 0.03 | 0.28 | 0.03 | 94 | 1013.0 |
| 20260508110453 | 5 | 207 | 0.0 | 0.0 | 0.03 | 0.28 | 0.03 | 94 | 1013.1 |
| 20260508104934 | 5 | 207 | 0.0 | 0.0 | 0.03 | 0.28 | 0.03 | 94 | 1012.8 |
| 20260508103514 | 6 | 207 | 0.0 | 1.6 | 0.03 | 0.28 | 0.03 | 94 | 1012.8 |
| 20260508101933 | 6 | 207 | 0.0 | 1.6 | 0.00 | 0.25 | 0.00 | 94 | 1012.8 |
| 20260508100434 | 6 | 207 | 0.0 | 3.2 | 0.00 | 0.25 | 0.00 | 94 | 1012.8 |
| 20260508094934 | 6 | 207 | 0.0 | 1.6 | 0.00 | 0.25 | 0.00 | 94 | 1012.8 |
| 20260508093515 | 6 | 207 | 0.0 | 3.2 | 0.00 | 0.25 | 0.00 | 95 | 1012.8 |
| 20260508091932 | 5 | 176 | 0.0 | 3.2 | 0.00 | 0.25 | 0.00 | 94 | 1012.9 |
| 20260508090434 | 5 | 133 | 0.0 | 0.0 | 0.00 | 0.25 | 0.00 | 94 | 1012.9 |
| 20260508084954 | 5 | 132 | 0.0 | 0.0 | 0.00 | 0.25 | 0.00 | 94 | 1012.9 |
| 20260508083454 | 5 | 132 | 0.0 | 0.0 | 0.00 | 0.25 | 0.00 | 93 | 1013.0 |
| 20260508081934 | 5 | 132 | 0.0 | 0.0 | 0.00 | 0.25 | 0.00 | 93 | 1012.9 |
| 20260508080433 | 5 | 133 | 0.0 | 0.0 | 0.00 | 0.25 | 0.00 | 93 | 1012.9 |
| 20260508074934 | 5 | 132 | 0.0 | 0.0 | 0.00 | 0.25 | 0.00 | 93 | 1013.0 |
| 20260508073434 | 5 | 133 | 0.0 | 0.0 | 0.00 | 0.25 | 0.00 | 93 | 1013.1 |
| 20260508071934 | 5 | 133 | 0.0 | 0.0 | 0.00 | 0.25 | 0.00 | 93 | 1013.0 |
| 20260508070433 | 5 | 133 | 0.0 | 0.0 | 0.00 | 0.25 | 0.00 | 93 | 1013.1 |
| 20260508064933 | 5 | 133 | 0.0 | 0.0 | 0.00 | 0.25 | 0.00 | 93 | 1013.2 |
| 20260508063433 | 5 | 133 | 0.0 | 1.6 | 0.00 | 0.25 | 0.00 | 93 | 1013.1 |
| 20260508061934 | 5 | 133 | 0.0 | 3.2 | 0.00 | 0.25 | 0.00 | 93 | 1013.2 |
| 20260508060454 | 5 | 133 | 0.0 | 3.2 | 0.00 | 0.25 | 0.00 | 93 | 1013.3 |
| 20260508054933 | 5 | 158 | 0.0 | 3.2 | 0.00 | 0.25 | 0.00 | 93 | 1013.3 |
| 20260508053433 | 5 | 118 | 0.0 | 1.6 | 0.00 | 0.25 | 0.00 | 93 | 1013.5 |
| 20260508051954 | 5 | 118 | 0.0 | 3.2 | 0.00 | 0.25 | 0.00 | 93 | 1013.5 |
| 20260508050433 | 5 | 118 | 0.0 | 3.2 | 0.00 | 0.25 | 0.00 | 93 | 1013.4 |
| 20260508044933 | 5 | 162 | 0.0 | 1.6 | 0.00 | 0.25 | 0.00 | 93 | 1013.2 |